Skip Page Navigation
NASA JPL Caltech
NASA Logo - Jet Propulsion Laboratory + View the NASA Portal
+ Center for Near-Earth Object Studies
JPL Home Earth Solar System Stars & Galaxies Technology
JPL Solar System Dynamics
BODIES ORBITS EPHEMERIDES TOOLS PHYSICAL DATA DISCOVERY FAQ SITE MAP
IMPORTANT: The SSD Announcement email list is now available. Major changes are coming in the near future, including possible hostname and/or URL changes. To be notified of such changes, subscribe to this email list.

Please visit this page for more details.


JPL Small-Body Database Browser
Search: [ help ]  
452052 (2014 OA253)
Classification: Main-belt Asteroid          SPK-ID: 2452052
Ephemeris | Orbit Diagram | Orbital Elements | Mission Design | Physical Parameters | Discovery Circumstances | Close-Approach Data ]

[ show orbit diagram ]
Orbital Elements at Epoch 2458600.5 (2019-Apr-27.0) TDB
Reference: JPL 11 (heliocentric ecliptic J2000)
 Element Value Uncertainty (1-sigma)   Units 
e .03267277402556641 1.2072e-07  
a 3.167185330556308 1.3906e-07 au
q 3.063704599953953 3.9068e-07 au
i 11.17212990035314 1.5267e-05 deg
node 343.8142245771586 5.4412e-05 deg
peri 196.6559566214831 0.00022139 deg
M 68.07856845710765 0.00021758 deg
tp 2458211.171176975323
(2018-Apr-02.67117698)
0.0012419 TDB
period 2058.773847120322
5.64
0.00013559
3.712e-07
d
yr
n .1748613625063989 1.1516e-08 deg/d
Q 3.270666061158663 1.436e-07 au
  Orbit Determination Parameters
   # obs. used (total)      80  
   data-arc span      3153 days (8.63 yr)  
   first obs. used      2009-08-27  
   last obs. used      2018-04-15  
   planetary ephem.      DE431  
   SB-pert. ephem.      SB431-N16  
   condition code      0  
   norm. resid. RMS      .54425  
   source      ORB  
   producer      Otto Matic  
   solution date      2019-Jul-14 15:19:08  

Additional Information
 Earth MOID = 2.07007 au 
 Jupiter MOID = 1.71321 au 
 T_jup = 3.173 
[ show covariance matrix ]

Ephemeris | Orbit Diagram | Orbital Elements | Mission Design | Physical Parameters | Discovery Circumstances | Close-Approach Data ]

Physical Parameter Table
Parameter Symbol Value Units Sigma Reference Notes
absolute magnitude H 16.1   n/a MPO440873  

452052 (2014 OA253)          Discovered 2009-Aug-27 by Spacewatch at Kitt Peak
Reference: Last Updated: 2015-11-30

[ show close-approach data ]
Ephemeris | Orbit Diagram | Orbital Elements | Mission Design | Physical Parameters | Discovery Circumstances | Close-Approach Data ]
ABOUT SSD CREDITS/AWARDS PRIVACY/COPYRIGHT GLOSSARY LINKS
FirstGov 2019-Dec-07 04:14 UT
(server date/time)  
NASA Home Page
Site Manager:   Ryan S. Park
Webmaster  Alan B. Chamberlin